Weather in Yavorov

Ukraine / Lviv District     49°56′22″N   23°23′08″E
temp.,
°C
wind,
m/s
gust,
m/s
humid.,
%
clouds,
%
prec.,
mm/h
press.,
hPa
HPBL,
m
30 june, thu
thu3000:00+20ese227727 0.8 101516
03:00+20ese337914 1.1 101539
06:00+19ese227897 0.0 101415
09:00+26ese235724 0.0 1015279
12:00+31e334188 0.0 10141527
15:00+33e433782 0.0 10132460
18:00+32ene54375 0.0 10131956
21:00+26ene5116422 0.0 1013363
1 july, fri
fri100:00+23ese41276100 0.0 1015310
03:00+22ese5127419 0.0 1014350
06:00+20ese39854 0.0 1015207
09:00+25ese58621 0.0 1015494
12:00+30ese66465 0.0 10151280
15:00+33ese543850 0.0 10132066
18:00+32e65376 0.0 10131914
21:00+27e713530 0.0 1013466
2 july, sat
sat200:00+23e5106079 0.0 1015227
03:00+20s5117422 0.2 1017320
06:00+18wsw51098100 0.9 1018457
09:00+19w5895100 1.1 1020638
12:00+18wnw5896100 0.9 1022587
15:00+18wnw5690100 2.3 1023730
18:00+19nw568088 0.1 1022694
21:00+18nw3582100 0.1 1022558
3 july, sun
sun300:00+18wnw2586100 0.0 1023285
03:00+17wnw2588100 0.0 1022240
06:00+17nnw2592100 0.1 1022191
09:00+18n1284100 0.3 1022249
12:00+21nnw225743 0.1 1021865
15:00+25nw32410 0.1 10201830
18:00+26n23383 0.0 10191944
21:00+20ne35610 0.0 101970
4 july, mon
mon400:00+16ene22600 0.0 102015
03:00+14ese11660 0.0 102011
06:00+14sse11695 0.0 101911
09:00+21nw12500 0.0 1019340
12:00+26nnw33380 0.0 10191484
15:00+28n23335 0.0 10182004
18:00+28nne24340 0.0 10182115
21:00+22ene34570 0.0 101866